OK2ARM-6 Weather Reports


time (UTC)temp
F
wind
direction
speed
knots
gust
knots
rain 1hr
in
rain 24hr
in
rain mn
in
humidity
%
barometer
mb
20260507033537 51 0.0 0.0 0.00 0.00 0.00 100 1009.4
20260507032536 51 0.0 0.0 0.00 0.00 0.00 100 1009.4
20260507031536 52 0.0 0.0 0.00 0.00 0.00 100 1009.2
20260507030536 52 0.0 0.0 0.00 0.00 0.00 100 1009.2
20260507023049 53 0.0 0.0 0.00 0.00 0.00 100 1008.9
20260507022049 53 0.0 0.0 0.00 0.00 0.00 100 1008.9
20260507021050 53 0.0 0.0 0.00 0.00 0.00 100 1009.0
20260507020049 53 0.0 0.0 0.00 0.00 0.00 100 1008.8
20260507013825 54 0.0 0.0 0.00 0.00 0.00 100 1008.4
20260507012825 54 0.0 0.0 0.00 0.00 0.00 100 1008.2
20260507011825 55 0.0 0.0 0.00 0.00 0.00 100 1008.2
20260507010825 55 0.0 0.0 0.00 0.00 0.00 100 1008.2
20260507005825 55 0.0 0.0 0.00 0.00 0.00 100 1008.1
20260507004825 55 0.0 0.0 0.00 0.00 0.00 100 1008.1
20260507003825 55 0.0 0.0 0.00 0.00 0.00 100 1007.9
20260507002825 55 0.0 0.0 0.00 0.00 0.00 100 1007.6
20260507001825 55 0.0 0.0 0.00 0.00 0.00 100 1007.8
20260507000825 56 0.0 0.0 0.00 0.00 0.00 100 1007.8
20260506235825 56 0.0 0.0 0.00 0.00 0.00 100 1007.8
20260506232338 56 0.0 0.0 0.00 0.00 0.00 100 1007.4
20260506231338 56 0.0 0.0 0.00 0.00 0.00 100 1007.1
20260506230338 56 0.0 0.0 0.00 0.00 0.00 100 1006.7
20260506225338 57 0.0 0.0 0.00 0.00 0.00 100 1006.7
20260506224338 57 0.0 0.0 0.00 0.00 0.00 100 1006.4
20260506220849 59 0.0 0.0 0.00 0.00 0.00 100 1005.9
20260506215849 60 0.0 0.0 0.00 0.00 0.00 35 1005.8
20260506213624 61 0.0 0.0 0.00 0.00 0.00 100 1005.6
20260506212624 61 0.0 0.0 0.00 0.00 0.00 100 1005.4
20260506211624 62 0.0 0.0 0.00 0.00 0.00 100 1005.2
20260506210624 62 0.0 0.0 0.00 0.00 0.00 100 1005.1
20260506205624 63 0.0 0.0 0.00 0.00 0.00 100 1004.7
20260506204625 63 0.0 0.0 0.00 0.00 0.00 100 1004.7
20260506203624 63 0.0 0.0 0.00 0.00 0.00 100 1004.7
20260506202624 64 0.0 0.0 0.00 0.00 0.00 100 1004.6
20260506201625 64 0.0 0.0 0.00 0.00 0.00 100 1004.7
20260506200624 64 0.0 0.0 0.00 0.00 0.00 100 1004.8
20260506195624 65 0.0 0.0 0.00 0.00 0.00 100 1004.7
20260506194624 65 0.0 0.0 0.00 0.00 0.00 100 1004.7
20260506193624 65 0.0 0.0 0.00 0.00 0.00 100 1004.6
20260506192625 66 0.0 0.0 0.00 0.00 0.00 100 1004.5
20260506191624 66 0.0 0.0 0.00 0.00 0.00 100 1004.3
20260506190624 66 0.0 0.0 0.00 0.00 0.00 100 1004.2
20260506185624 66 0.0 0.0 0.00 0.00 0.00 100 1004.3
20260506184624 67 0.0 0.0 0.00 0.00 0.00 100 1004.1
20260506183624 67 0.0 0.0 0.00 0.00 0.00 100 1003.9
20260506182624 67 0.0 0.0 0.00 0.00 0.00 100 1004.0
20260506181624 68 0.0 0.0 0.00 0.00 0.00 100 1004.1
20260506175400 68 0.0 0.0 0.00 0.00 0.00 100 1004.0
20260506174401 69 0.0 0.0 0.00 0.00 0.00 100 1003.9
20260506173400 70 0.0 0.0 0.00 0.00 0.00 100 1004.0
20260506172400 70 0.0 0.0 0.00 0.00 0.00 100 1004.1
20260506171400 72 0.0 0.0 0.00 0.00 0.00 100 1004.1
20260506163911 74 0.0 0.0 0.00 0.00 0.00 100 1004.5
20260506162911 75 0.0 0.0 0.00 0.00 0.00 100 1004.4
20260506161911 75 0.0 0.0 0.00 0.00 0.00 100 1004.4
20260506155648 76 0.0 0.0 0.00 0.00 0.00 100 1004.6
20260506154647 76 0.0 0.0 0.00 0.00 0.00 100 1004.8
20260506153647 76 0.0 0.0 0.00 0.00 0.00 100 1004.9
20260506152648 76 0.0 0.0 0.00 0.00 0.00 100 1005.2
20260506151648 77 0.0 0.0 0.00 0.00 0.00 100 1005.3
20260506150647 76 0.0 0.0 0.00 0.00 0.00 100 1005.3
20260506145647 75 0.0 0.0 0.00 0.00 0.00 100 1005.4
20260506144648 76 0.0 0.0 0.00 0.00 0.00 100 1005.6
20260506143647 73 0.0 0.0 0.00 0.00 0.00 100 1005.8
20260506141423 71 0.0 0.0 0.00 0.00 0.00 100 1006.1
20260506140423 71 0.0 0.0 0.00 0.00 0.00 100 1006.0
20260506135423 72 0.0 0.0 0.00 0.00 0.00 100 1006.1
20260506134423 73 0.0 0.0 0.00 0.00 0.00 100 1006.3
20260506133423 76 0.0 0.0 0.00 0.00 0.00 100 1006.3
20260506132423 71 0.0 0.0 0.00 0.00 0.00 100 1006.6
20260506131423 73 0.0 0.0 0.00 0.00 0.00 100 1006.5
20260506130423 76 0.0 0.0 0.00 0.00 0.00 100 1006.8
20260506125423 75 0.0 0.0 0.00 0.00 0.00 100 1006.8
20260506124423 75 0.0 0.0 0.00 0.00 0.00 100 1007.0
20260506123423 76 0.0 0.0 0.00 0.00 0.00 100 1007.1
20260506122423 76 0.0 0.0 0.00 0.00 0.00 100 1007.2
20260506121424 76 0.0 0.0 0.00 0.00 0.00 100 1007.3
20260506120423 73 0.0 0.0 0.00 0.00 0.00 100 1007.4
20260506115423 75 0.0 0.0 0.00 0.00 0.00 100 1007.4
20260506114423 74 0.0 0.0 0.00 0.00 0.00 100 1007.4
20260506112159 72 0.0 0.0 0.00 0.00 0.00 100 1007.4
20260506111159 72 0.0 0.0 0.00 0.00 0.00 100 1007.5
20260506110159 70 0.0 0.0 0.00 0.00 0.00 100 1007.7
20260506105159 71 0.0 0.0 0.00 0.00 0.00 100 1007.8
20260506104159 71 0.0 0.0 0.00 0.00 0.00 100 1007.8
20260506100712 72 0.0 0.0 0.00 0.00 0.00 100 1008.1
20260506095712 72 0.0 0.0 0.00 0.00 0.00 100 1008.3
20260506094712 69 0.0 0.0 0.00 0.00 0.00 100 1008.4
20260506092448 68 0.0 0.0 0.00 0.00 0.00 100 1008.3
20260506091449 67 0.0 0.0 0.00 0.00 0.00 100 1008.3
20260506090448 67 0.0 0.0 0.00 0.00 0.00 100 1008.4
20260506085448 66 0.0 0.0 0.00 0.00 0.00 100 1008.3
20260506084448 66 0.0 0.0 0.00 0.00 0.00 100 1008.3
20260506083448 65 0.0 0.0 0.00 0.00 0.00 100 1008.4
20260506082448 65 0.0 0.0 0.00 0.00 0.00 100 1008.5
20260506081448 65 0.0 0.0 0.00 0.00 0.00 8 1008.6
20260506072959 62 0.0 0.0 0.00 0.00 0.00 5 1008.5
20260506071959 62 0.0 0.0 0.00 0.00 0.00 23 1008.7
20260506070959 62 0.0 0.0 0.00 0.00 0.00 22 1008.7
20260506061735 59 0.0 0.0 0.00 0.00 0.00 47 1008.5
20260506060735 58 0.0 0.0 0.00 0.00 0.00 64 1008.5
20260506045024 50 0.0 0.0 0.00 0.00 0.00 100 1007.9
20260506044025 50 0.0 0.0 0.00 0.00 0.00 100 1007.9
20260506043025 50 0.0 0.0 0.00 0.00 0.00 100 1007.9
20260506040800 49 0.0 0.0 0.00 0.00 0.00 100 1007.6
20260506035800 49 0.0 0.0 0.00 0.00 0.00 100 1007.5
20260506034800 49 0.0 0.0 0.00 0.00 0.00 100 1007.4